Date String (YYYY-MM-DD hh:mm:ss) UTC,Instrument flags,Ambient pressure (hPa),Sample flow (lpm),Bypass flow (lpm),Sample temperature (°C),Ambient temperature (°C),ASC tube jacket temperature (°C),LED temperature (°C),Box temperature (°C),Sample RH (%),Span deviation,Mass concentration (μg/m³),Mass concentration (μg/m³),Mass concentration (μg/m³)
DateTimeUTC,F1_M11,P_M11,Q1_M11,Q2_M11,T1_M11,T2_M11,T3_M11,T4_M11,T5_M11,U1_M11,ZSPAN_M11,X0_M11,X2_M11,X1_M11
2022-04-28 07:00:00,,0820.3,4.99,0.00,27.0,26.3,00.0,36.0,28.7,11.2,0000.3,0022.61,0008.41,0004.66
2022-04-28 07:01:00,,0820.3,4.99,0.00,27.0,26.3,00.0,36.0,28.7,11.2,-000.2,0022.13,0008.39,0004.66
2022-04-28 07:02:00,,0820.3,5.01,0.00,27.0,26.3,00.0,36.0,28.7,11.1,0000.7,0021.42,0008.27,0004.65
2022-04-28 07:03:00,,0820.3,5.01,0.00,27.0,26.3,00.0,36.0,28.7,11.1,0000.6,0020.92,0008.25,0004.65
2022-04-28 07:04:00,,0820.3,5.00,0.00,27.0,26.3,00.0,36.0,28.7,11.0,0000.5,0021.70,0008.26,0004.66
2022-04-28 07:05:00,,0820.3,4.99,0.00,27.0,26.4,00.0,36.0,28.7,11.0,0000.4,0023.22,0008.30,0004.68
2022-04-28 07:06:00,,0820.3,5.00,0.00,27.0,26.3,00.0,36.0,28.8,10.9,-000.1,0023.11,0008.31,0004.71
2022-04-28 07:07:00,,0820.3,4.99,0.00,27.0,26.3,00.0,36.0,28.8,10.8,0000.0,0022.86,0008.35,0004.74
2022-04-28 07:08:00,,0820.3,5.01,0.00,27.0,26.3,00.0,36.0,28.7,10.8,0000.2,0022.46,0008.38,0004.75
2022-04-28 07:09:00,,0820.3,5.01,0.00,27.0,26.3,00.0,36.0,28.7,10.7,0001.1,0022.77,0008.47,0004.78
2022-04-28 07:10:00,,0820.4,5.00,0.00,27.0,26.3,00.0,36.0,28.7,10.7,0000.3,0022.62,0008.51,0004.76
2022-04-28 07:11:00,,0820.3,5.00,0.00,27.0,26.3,00.0,36.0,28.7,10.7,0000.0,0022.97,0008.46,0004.78
2022-04-28 07:12:00,,0820.3,5.01,0.00,27.0,26.3,00.0,36.0,28.7,10.6,0000.0,0023.15,0008.46,0004.81
2022-04-28 07:13:00,,0820.3,5.00,0.00,27.0,26.3,00.0,36.0,28.7,10.6,0000.0,0023.14,0008.47,0004.82
2022-04-28 07:14:00,,0820.3,5.00,0.00,27.0,26.3,00.0,36.0,28.7,10.5,0000.0,0023.33,0008.48,0004.84
2022-04-28 07:15:00,,0820.3,4.99,0.00,27.0,26.3,00.0,36.0,28.8,10.5,0000.0,0022.90,0008.52,0004.84
2022-04-28 07:16:00,,0820.3,5.02,0.00,27.0,26.3,00.0,36.0,28.8,10.5,0000.0,0021.74,0008.49,0004.84
2022-04-28 07:17:00,,0820.3,4.98,0.00,27.0,26.3,00.0,36.0,28.8,10.4,0000.0,0021.97,0008.50,0004.85
2022-04-28 07:18:00,,0820.3,4.99,0.00,27.0,26.3,00.0,36.0,28.7,10.4,0000.0,0022.01,0008.49,0004.88
2022-04-28 07:19:00,,0820.3,5.00,0.00,27.0,26.3,00.0,36.0,28.7,10.4,0000.0,0022.23,0008.60,0004.89
2022-04-28 07:20:00,,0820.3,5.01,0.00,27.0,26.3,00.0,36.0,28.7,10.4,0000.0,0022.47,0008.67,0004.90
2022-04-28 07:21:00,,0820.3,4.98,0.00,27.0,26.2,00.0,36.0,28.7,10.4,0000.0,0022.77,0008.63,0004.90
2022-04-28 07:22:00,,0820.3,5.00,0.00,27.0,26.2,00.0,36.0,28.7,10.4,0001.0,0022.39,0008.66,0004.90
2022-04-28 07:23:00,,0820.3,5.01,0.00,26.9,26.2,00.0,36.0,28.7,10.4,0002.8,0022.65,0008.71,0004.92
2022-04-28 07:24:00,,0820.3,4.99,0.00,26.9,26.2,00.0,36.0,28.7,10.4,0001.3,0022.05,0008.71,0004.93
2022-04-28 07:25:00,,0820.3,4.99,0.00,26.9,26.2,00.0,35.9,28.7,10.4,0002.8,0021.72,0008.74,0004.95
2022-04-28 07:26:00,,0820.3,5.02,0.00,26.9,26.2,00.0,35.9,28.6,10.3,0002.1,0022.24,0008.69,0005.00
2022-04-28 07:27:00,,0820.3,4.99,0.00,26.9,26.2,00.0,35.9,28.6,10.4,0002.2,0023.01,0008.74,0005.04
2022-04-28 07:28:00,,0820.3,5.00,0.00,26.9,26.1,00.0,35.9,28.6,10.3,0002.0,0023.48,0008.79,0005.05
2022-04-28 07:29:00,,0820.3,5.00,0.00,26.9,26.1,00.0,35.9,28.6,10.3,0001.8,0023.64,0008.84,0005.06
2022-04-28 07:30:00,,0820.3,4.99,0.00,26.9,26.1,00.0,35.9,28.6,10.3,0001.0,0023.97,0008.85,0005.08
2022-04-28 07:31:00,,0820.3,5.02,0.00,26.8,26.1,00.0,35.9,28.6,10.2,0000.6,0023.64,0008.81,0005.09
2022-04-28 07:32:00,,0820.3,5.00,0.00,26.8,26.1,00.0,35.9,28.6,10.1,0000.5,0023.67,0008.86,0005.14
2022-04-28 07:33:00,,0820.3,5.00,0.00,26.8,26.1,00.0,35.9,28.5,10.1,0000.5,0023.46,0008.85,0005.17
2022-04-28 07:34:00,,0820.2,5.01,0.00,26.8,26.1,00.0,35.9,28.5,10.1,0000.7,0023.57,0008.82,0005.20
2022-04-28 07:35:00,,0820.2,5.00,0.00,26.8,26.1,00.0,35.9,28.5,10.1,0000.6,0024.43,0008.83,0005.24
2022-04-28 07:36:00,,0820.2,4.99,0.00,26.8,26.1,00.0,35.9,28.5,10.0,0000.7,0024.50,0008.83,0005.25
2022-04-28 07:37:00,,0820.3,5.02,0.00,26.8,26.0,00.0,35.9,28.5,10.0,0000.9,0024.05,0008.90,0005.23
2022-04-28 07:38:00,,0820.3,4.99,0.00,26.8,26.0,00.0,35.8,28.5,09.9,0000.9,0023.66,0008.87,0005.23
2022-04-28 07:39:00,,0820.3,4.99,0.00,26.7,26.0,00.0,35.8,28.5,10.0,0000.7,0023.12,0008.85,0005.24
2022-04-28 07:40:00,,0820.3,5.01,0.00,26.7,26.0,00.0,35.8,28.5,10.1,0000.5,0023.44,0008.81,0005.26
2022-04-28 07:41:00,,0820.3,5.00,0.00,26.7,25.9,00.0,35.8,28.5,10.1,0000.6,0022.90,0008.74,0005.27
2022-04-28 07:42:00,,0820.3,4.99,0.00,26.7,25.9,00.0,35.8,28.5,10.0,0000.4,0023.68,0008.79,0005.29
2022-04-28 07:43:00,,0820.3,4.99,0.00,26.7,26.0,00.0,35.8,28.5,09.8,0000.6,0023.49,0008.81,0005.28
2022-04-28 07:44:00,,0820.3,5.02,0.00,26.7,26.0,00.0,35.8,28.5,09.9,0001.0,0023.62,0008.90,0005.28
2022-04-28 07:45:00,,0820.3,4.99,0.00,26.7,26.0,00.0,35.8,28.5,09.8,0001.0,0023.55,0008.95,0005.29
2022-04-28 07:46:00,,0820.3,5.00,0.00,26.7,26.0,00.0,35.8,28.5,09.8,0001.2,0023.26,0009.00,0005.30
2022-04-28 07:47:00,,0820.3,5.00,0.00,26.7,26.0,00.0,35.8,28.5,09.8,0000.7,0023.49,0009.04,0005.31
2022-04-28 07:48:00,,0820.3,5.00,0.00,26.7,26.0,00.0,35.8,28.5,09.8,0000.9,0023.50,0009.08,0005.33
2022-04-28 07:49:00,,0820.3,5.01,0.00,26.7,26.0,00.0,35.8,28.5,09.9,0000.4,0023.27,0009.11,0005.36
2022-04-28 07:50:00,,0820.3,5.01,0.00,26.7,26.0,00.0,35.8,28.5,09.9,0000.6,0023.78,0009.17,0005.37
2022-04-28 07:51:00,,0820.3,4.99,0.00,26.7,26.0,00.0,35.7,28.5,09.8,0001.6,0024.19,0009.19,0005.37
2022-04-28 07:52:00,,0820.3,5.01,0.00,26.7,26.0,00.0,35.7,28.5,09.8,0001.7,0024.65,0009.27,0005.36
2022-04-28 07:53:00,,0820.3,5.00,0.00,26.7,25.9,00.0,35.7,28.5,09.8,0002.2,0023.74,0009.32,0005.37
2022-04-28 07:54:00,,0820.3,5.00,0.00,26.7,25.9,00.0,35.7,28.4,09.7,0002.6,0023.56,0009.29,0005.39
2022-04-28 07:55:00,,0820.2,5.00,0.00,26.7,25.9,00.0,35.7,28.4,09.7,0002.9,0023.79,0009.25,0005.40
2022-04-28 07:56:00,,0820.2,4.99,0.00,26.6,25.9,00.0,35.7,28.4,09.7,0002.6,0023.56,0009.23,0005.38
2022-04-28 07:57:00,,0820.3,5.00,0.00,26.6,25.9,00.0,35.7,28.4,09.8,0002.3,0023.39,0009.20,0005.38
2022-04-28 07:58:00,,0820.2,5.02,0.00,26.6,25.9,00.0,35.7,28.4,09.8,0002.4,0023.82,0009.18,0005.38
2022-04-28 07:59:00,,0820.3,4.99,0.00,26.6,25.9,00.0,35.7,28.4,09.7,0002.3,0023.83,0009.20,0005.40
